Voltar ao catálogo

STARLINK-30127

AtivoComunicaçõesVLEO
NORAD 56699·PAYLOAD·🇺🇸 United States

Lançado May 19, 2023 de Cape Canaveral Space Force Station

Loading…

Próximas Passagens (próximas 24 horas)

TLE

AtualizadoSource: CelesTrak SupGP

Época: Sep 15, 2026, 02:01 UTC

1 56699C 23067M   26258.08451389  .00032249  00000+0  11681-2 0  2580
2 56699  43.0037 291.8616 0002028 267.1715  83.8304 15.27559011    11

Acompanhe STARLINK-30127 em tempo real com AllMySat

Download on the App Store